| time (UTC) | temp F | wind direction | speed knots | gust knots | rain 1hr in | rain 24hr in | rain mn in | humidity % | barometer mb |
| 20260831212518 | 58 | 225 | 2.6 | 5.2 | 0.00 | 0.03 | 0.01 | 78 | 1020.9 |
| 20260831211518 | 58 | 225 | 3.5 | 6.1 | 0.00 | 0.12 | 0.01 | 77 | 1020.8 |
| 20260831210522 | 58 | 248 | 3.5 | 7.0 | 0.00 | 0.15 | 0.01 | 77 | 1020.8 |
| 20260831205519 | 58 | 248 | 3.5 | 7.8 | 0.00 | 0.15 | 0.01 | 76 | 1020.8 |
| 20260831204517 | 58 | 248 | 3.5 | 7.0 | 0.00 | 0.15 | 0.01 | 76 | 1020.7 |
| 20260831203518 | 59 | 248 | 3.5 | 7.0 | 0.00 | 0.15 | 0.01 | 75 | 1020.4 |
| 20260831202518 | 59 | 248 | 2.6 | 7.0 | 0.00 | 0.15 | 0.01 | 75 | 1020.4 |
| 20260831201552 | 59 | 248 | 3.5 | 6.1 | 0.00 | 0.16 | 0.01 | 76 | 1020.4 |
| 20260831200517 | 59 | 248 | 2.6 | 7.0 | 0.00 | 0.16 | 0.01 | 76 | 1020.4 |
| 20260831195519 | 59 | 248 | 2.6 | 5.2 | 0.00 | 0.16 | 0.01 | 75 | 1020.3 |
| 20260831194519 | 59 | 248 | 3.5 | 7.0 | 0.00 | 0.16 | 0.01 | 75 | 1020.4 |
| 20260831193517 | 60 | 248 | 2.6 | 6.1 | 0.00 | 0.16 | 0.01 | 74 | 1020.2 |
| 20260831192517 | 60 | 248 | 1.7 | 3.5 | 0.00 | 0.16 | 0.01 | 73 | 1020.0 |
| 20260831191517 | 61 | 248 | 2.6 | 5.2 | 0.00 | 0.16 | 0.01 | 72 | 1020.0 |
| 20260831190553 | 61 | 225 | 3.5 | 7.0 | 0.00 | 0.16 | 0.01 | 72 | 1019.8 |
| 20260831185518 | 62 | 248 | 3.5 | 7.8 | 0.00 | 0.16 | 0.01 | 71 | 1019.6 |
| 20260831184518 | 62 | 248 | 3.5 | 7.0 | 0.00 | 0.16 | 0.01 | 71 | 1019.6 |
| 20260831183517 | 62 | 248 | 2.6 | 5.2 | 0.00 | 0.16 | 0.01 | 70 | 1019.4 |
| 20260831182518 | 63 | 248 | 4.3 | 7.8 | 0.00 | 0.16 | 0.01 | 69 | 1019.4 |
| 20260831181518 | 63 | 248 | 4.3 | 10.4 | 0.00 | 0.16 | 0.01 | 67 | 1019.4 |
| 20260831180518 | 64 | 248 | 7.0 | 11.3 | 0.00 | 0.16 | 0.01 | 66 | 1019.6 |
| 20260831175519 | 64 | 248 | 6.1 | 9.6 | 0.00 | 0.16 | 0.01 | 66 | 1019.3 |
| 20260831174518 | 65 | 248 | 5.2 | 9.6 | 0.00 | 0.16 | 0.01 | 65 | 1019.2 |
| 20260831173518 | 65 | 248 | 5.2 | 11.3 | 0.00 | 0.19 | 0.01 | 64 | 1019.2 |
| 20260831172518 | 65 | 248 | 3.5 | 7.8 | 0.00 | 0.19 | 0.01 | 62 | 1018.9 |
| 20260831171519 | 65 | 248 | 2.6 | 8.7 | 0.00 | 0.19 | 0.01 | 61 | 1018.9 |
| 20260831170517 | 66 | 248 | 4.3 | 9.6 | 0.00 | 0.19 | 0.01 | 59 | 1018.9 |
| 20260831165517 | 67 | 270 | 6.1 | 13.9 | 0.00 | 0.19 | 0.01 | 58 | 1018.9 |
| 20260831164520 | 67 | 270 | 5.2 | 11.3 | 0.00 | 0.19 | 0.01 | 59 | 1018.7 |
| 20260831163520 | 67 | 270 | 7.0 | 15.6 | 0.00 | 0.20 | 0.01 | 59 | 1018.7 |
| 20260831162516 | 67 | 270 | 7.8 | 13.9 | 0.00 | 0.20 | 0.01 | 58 | 1018.8 |
| 20260831161540 | 67 | 270 | 6.1 | 12.2 | 0.00 | 0.20 | 0.01 | 62 | 1018.7 |
| 20260831160517 | 67 | 270 | 6.1 | 13.0 | 0.00 | 0.20 | 0.01 | 62 | 1018.7 |
| 20260831155518 | 67 | 270 | 7.8 | 13.9 | 0.00 | 0.20 | 0.01 | 61 | 1018.5 |
| 20260831154538 | 68 | 270 | 7.8 | 13.0 | 0.00 | 0.20 | 0.01 | 60 | 1018.4 |
| 20260831153518 | 68 | 270 | 8.7 | 14.8 | 0.00 | 0.20 | 0.01 | 58 | 1018.4 |
| 20260831152519 | 69 | 270 | 6.1 | 12.2 | 0.00 | 0.20 | 0.01 | 58 | 1018.3 |
| 20260831151521 | 70 | 248 | 7.8 | 15.6 | 0.00 | 0.20 | 0.01 | 57 | 1018.1 |
| 20260831150517 | 70 | 248 | 8.7 | 14.8 | 0.00 | 0.20 | 0.01 | 56 | 1018.0 |
| 20260831145520 | 70 | 248 | 6.1 | 11.3 | 0.00 | 0.20 | 0.01 | 54 | 1017.9 |
| 20260831144524 | 71 | 248 | 10.4 | 16.5 | 0.00 | 0.20 | 0.01 | 57 | 1017.9 |
| 20260831143521 | 71 | 248 | 7.8 | 13.0 | 0.00 | 0.20 | 0.01 | 59 | 1017.7 |
| 20260831142542 | 68 | 270 | 7.8 | 17.4 | 0.00 | 0.20 | 0.01 | 62 | 1017.8 |
| 20260831141523 | 68 | 248 | 7.0 | 13.0 | 0.00 | 0.20 | 0.01 | 67 | 1017.8 |
| 20260831140541 | 67 | 270 | 7.8 | 13.0 | 0.00 | 0.20 | 0.01 | 68 | 1017.7 |
| 20260831135521 | 67 | 248 | 7.0 | 11.3 | 0.00 | 0.20 | 0.01 | 72 | 1017.6 |
| 20260831134543 | 67 | 248 | 6.1 | 12.2 | 0.00 | 0.20 | 0.01 | 72 | 1017.6 |
| 20260831133523 | 68 | 270 | 7.0 | 12.2 | 0.00 | 0.20 | 0.01 | 64 | 1017.2 |
| 20260831132521 | 68 | 270 | 7.0 | 13.9 | 0.00 | 0.20 | 0.01 | 63 | 1017.1 |
| 20260831131542 | 68 | 270 | 6.1 | 13.9 | 0.00 | 0.20 | 0.01 | 63 | 1017.2 |
| 20260831130521 | 69 | 270 | 6.1 | 12.2 | 0.00 | 0.20 | 0.01 | 63 | 1016.9 |
| 20260831125520 | 69 | 293 | 4.3 | 9.6 | 0.00 | 0.20 | 0.01 | 62 | 1016.6 |
| 20260831124518 | 70 | 293 | 6.1 | 11.3 | 0.00 | 0.20 | 0.01 | 62 | 1016.9 |
| 20260831123522 | 70 | 293 | 5.2 | 13.0 | 0.00 | 0.20 | 0.01 | 62 | 1016.5 |
| 20260831122520 | 71 | 270 | 7.0 | 13.9 | 0.00 | 0.20 | 0.01 | 61 | 1016.6 |
| 20260831121521 | 72 | 270 | 6.1 | 16.5 | 0.00 | 0.20 | 0.01 | 61 | 1016.3 |
| 20260831120519 | 71 | 293 | 7.0 | 13.0 | 0.00 | 0.20 | 0.01 | 62 | 1017.0 |
| 20260831115518 | 71 | 293 | 7.0 | 14.8 | 0.00 | 0.20 | 0.01 | 64 | 1016.2 |
| 20260831114521 | 72 | 293 | 7.8 | 15.6 | 0.00 | 0.20 | 0.01 | 63 | 1016.0 |
| 20260831113519 | 71 | 248 | 8.7 | 13.9 | 0.00 | 0.20 | 0.01 | 63 | 1015.8 |
| 20260831112522 | 69 | 270 | 4.3 | 9.6 | 0.00 | 0.20 | 0.01 | 68 | 1015.6 |
| 20260831111541 | 69 | 270 | 7.8 | 16.5 | 0.00 | 0.20 | 0.01 | 68 | 1015.5 |
| 20260831110525 | 69 | 270 | 8.7 | 19.1 | 0.00 | 0.20 | 0.01 | 67 | 1015.6 |
| 20260831105518 | 69 | 293 | 6.1 | 13.9 | 0.00 | 0.20 | 0.01 | 71 | 1015.3 |
| 20260831104543 | 68 | 270 | 9.6 | 14.8 | 0.00 | 0.20 | 0.01 | 70 | 1015.1 |
| 20260831103523 | 66 | 270 | 5.2 | 11.3 | 0.00 | 0.20 | 0.01 | 76 | 1015.0 |
| 20260831102521 | 67 | 270 | 5.2 | 12.2 | 0.00 | 0.20 | 0.01 | 75 | 1014.9 |
| 20260831101519 | 67 | 270 | 4.3 | 8.7 | 0.00 | 0.20 | 0.01 | 73 | 1014.8 |
| 20260831100540 | 67 | 270 | 7.0 | 13.9 | 0.00 | 0.20 | 0.01 | 73 | 1014.7 |
| 20260831095519 | 67 | 293 | 7.0 | 14.8 | 0.00 | 0.20 | 0.01 | 72 | 1014.8 |
| 20260831094521 | 67 | 270 | 7.0 | 16.5 | 0.00 | 0.20 | 0.01 | 70 | 1014.5 |
| 20260831093601 | 68 | 293 | 5.2 | 12.2 | 0.00 | 0.20 | 0.01 | 70 | 1014.1 |
| 20260831092559 | 68 | 270 | 8.7 | 19.1 | 0.00 | 0.20 | 0.01 | 70 | 1014.2 |
| 20260831091522 | 67 | 270 | 7.0 | 13.9 | 0.00 | 0.20 | 0.01 | 72 | 1013.9 |
| 20260831090518 | 67 | 293 | 7.8 | 13.9 | 0.00 | 0.20 | 0.01 | 73 | 1013.6 |
| 20260831085522 | 67 | 270 | 7.0 | 13.9 | 0.00 | 0.20 | 0.01 | 74 | 1013.7 |
| 20260831084522 | 67 | 270 | 7.8 | 13.0 | 0.00 | 0.20 | 0.01 | 73 | 1013.8 |
| 20260831083520 | 67 | 270 | 7.0 | 15.6 | 0.00 | 0.20 | 0.01 | 76 | 1013.3 |
| 20260831082521 | 66 | 248 | 6.1 | 12.2 | 0.01 | 0.20 | 0.01 | 76 | 1012.9 |
| 20260831081520 | 66 | 270 | 7.0 | 12.2 | 0.01 | 0.20 | 0.01 | 78 | 1012.9 |
| 20260831080520 | 65 | 270 | 7.0 | 12.2 | 0.01 | 0.20 | 0.01 | 80 | 1012.7 |
| 20260831075524 | 65 | 248 | 6.1 | 10.4 | 0.01 | 0.20 | 0.01 | 80 | 1012.5 |
| 20260831074518 | 65 | 248 | 6.1 | 10.4 | 0.01 | 0.20 | 0.01 | 81 | 1012.2 |
| 20260831073519 | 64 | 248 | 6.1 | 13.0 | 0.01 | 0.20 | 0.01 | 82 | 1012.1 |
| 20260831072518 | 63 | 248 | 6.1 | 13.0 | 0.00 | 0.19 | 0.00 | 85 | 1011.6 |
| 20260831071524 | 61 | 248 | 5.2 | 11.3 | 0.00 | 0.19 | 0.00 | 87 | 1011.7 |
| 20260831070518 | 61 | 248 | 6.1 | 10.4 | 0.00 | 0.19 | 0.00 | 88 | 1011.4 |
| 20260831065601 | 60 | 248 | 4.3 | 9.6 | 0.00 | 0.19 | 0.00 | 90 | 1011.3 |
| 20260831064519 | 59 | 248 | 5.2 | 9.6 | 0.00 | 0.19 | 0.00 | 90 | 1011.1 |
| 20260831063525 | 59 | 248 | 4.3 | 9.6 | 0.00 | 0.19 | 0.00 | 90 | 1011.1 |
| 20260831062520 | 58 | 248 | 5.2 | 10.4 | 0.00 | 0.19 | 0.00 | 90 | 1010.7 |
| 20260831061518 | 58 | 248 | 7.0 | 11.3 | 0.00 | 0.19 | 0.00 | 90 | 1010.4 |
| 20260831060517 | 58 | 248 | 6.1 | 12.2 | 0.00 | 0.19 | 0.00 | 90 | 1010.2 |
| 20260831055519 | 58 | 248 | 6.1 | 10.4 | 0.00 | 0.19 | 0.00 | 90 | 1009.9 |
| 20260831054522 | 58 | 248 | 6.1 | 11.3 | 0.00 | 0.19 | 0.00 | 90 | 1009.7 |
| 20260831053523 | 57 | 248 | 7.0 | 13.0 | 0.00 | 0.19 | 0.00 | 90 | 1009.6 |
| 20260831052520 | 57 | 225 | 7.8 | 14.8 | 0.00 | 0.19 | 0.00 | 90 | 1009.3 |
| 20260831051521 | 57 | 225 | 6.1 | 13.0 | 0.00 | 0.19 | 0.00 | 90 | 1009.2 |
| 20260831050520 | 57 | 225 | 7.0 | 12.2 | 0.00 | 0.19 | 0.00 | 90 | 1009.0 |
| 20260831045520 | 57 | 248 | 7.0 | 14.8 | 0.00 | 0.19 | 0.00 | 90 | 1008.9 |
| 20260831044518 | 57 | 225 | 6.1 | 11.3 | 0.00 | 0.19 | 0.00 | 90 | 1008.7 |
| 20260831043522 | 57 | 225 | 5.2 | 10.4 | 0.00 | 0.19 | 0.00 | 90 | 1008.7 |
| 20260831042520 | 57 | 248 | 7.0 | 12.2 | 0.00 | 0.19 | 0.00 | 90 | 1008.7 |
| 20260831041542 | 57 | 225 | 5.2 | 12.2 | 0.00 | 0.19 | 0.00 | 90 | 1008.7 |
| 20260831040518 | 57 | 225 | 6.1 | 11.3 | 0.00 | 0.19 | 0.00 | 90 | 1008.6 |
| 20260831035518 | 57 | 225 | 6.1 | 13.0 | 0.00 | 0.19 | 0.00 | 90 | 1008.4 |
| 20260831034521 | 57 | 225 | 6.1 | 10.4 | 0.00 | 0.19 | 0.00 | 90 | 1008.4 |
| 20260831033521 | 57 | 225 | 6.1 | 10.4 | 0.00 | 0.19 | 0.00 | 90 | 1008.4 |
| 20260831032544 | 57 | 225 | 5.2 | 10.4 | 0.00 | 0.19 | 0.00 | 90 | 1008.2 |
| 20260831031517 | 57 | 225 | 7.0 | 11.3 | 0.00 | 0.19 | 0.00 | 90 | 1008.0 |
| 20260831030518 | 57 | 225 | 6.1 | 12.2 | 0.00 | 0.19 | 0.00 | 90 | 1008.0 |
| 20260831025517 | 57 | 248 | 6.1 | 12.2 | 0.00 | 0.19 | 0.00 | 91 | 1008.1 |
| 20260831024519 | 57 | 225 | 5.2 | 10.4 | 0.00 | 0.19 | 0.00 | 91 | 1007.9 |
| 20260831023518 | 57 | 225 | 6.1 | 12.2 | 0.00 | 0.19 | 0.00 | 90 | 1007.8 |
| 20260831022518 | 57 | 225 | 5.2 | 8.7 | 0.00 | 0.19 | 0.00 | 90 | 1007.7 |
| 20260831021517 | 57 | 225 | 4.3 | 8.7 | 0.00 | 0.19 | 0.00 | 90 | 1007.6 |
| 20260831020518 | 57 | 225 | 6.1 | 10.4 | 0.00 | 0.19 | 0.00 | 90 | 1007.6 |
| 20260831015520 | 57 | 225 | 5.2 | 9.6 | 0.00 | 0.19 | 0.00 | 90 | 1007.4 |
| 20260831014520 | 57 | 225 | 7.0 | 12.2 | 0.00 | 0.19 | 0.00 | 90 | 1007.5 |
| 20260831013519 | 57 | 248 | 7.0 | 12.2 | 0.00 | 0.19 | 0.00 | 90 | 1007.4 |
| 20260831012519 | 57 | 225 | 5.2 | 13.0 | 0.00 | 0.19 | 0.00 | 91 | 1007.2 |
| 20260831011523 | 57 | 225 | 5.2 | 10.4 | 0.00 | 0.19 | 0.00 | 90 | 1007.3 |
| 20260831010517 | 57 | 225 | 5.2 | 8.7 | 0.00 | 0.19 | 0.00 | 90 | 1007.1 |
| 20260831005520 | 57 | 225 | 5.2 | 11.3 | 0.00 | 0.19 | 0.00 | 90 | 1007.1 |
| 20260831004518 | 57 | 225 | 6.1 | 10.4 | 0.00 | 0.19 | 0.00 | 90 | 1007.0 |
| 20260831003520 | 57 | 225 | 6.1 | 12.2 | 0.00 | 0.19 | 0.00 | 90 | 1007.1 |
| 20260831002519 | 57 | 225 | 6.1 | 12.2 | 0.00 | 0.19 | 0.00 | 90 | 1007.0 |
| 20260831001518 | 57 | 248 | 6.1 | 10.4 | 0.00 | 0.19 | 0.00 | 90 | 1006.9 |
| 20260831000519 | 57 | 225 | 6.1 | 11.3 | 0.00 | 0.19 | 0.00 | 90 | 1006.7 |
| 20260830235520 | 57 | 225 | 6.1 | 13.0 | 0.00 | 0.19 | 0.00 | 90 | 1006.4 |
| 20260830234519 | 57 | 225 | 5.2 | 10.4 | 0.00 | 0.19 | 0.00 | 90 | 1006.2 |
| 20260830233523 | 57 | 225 | 5.2 | 11.3 | 0.00 | 0.19 | 0.00 | 90 | 1006.1 |
| 20260830232519 | 57 | 225 | 5.2 | 9.6 | 0.00 | 0.19 | 0.00 | 90 | 1006.3 |
| 20260830231521 | 57 | 225 | 4.3 | 8.7 | 0.01 | 0.19 | 0.00 | 89 | 1006.2 |
| 20260830230521 | 58 | 225 | 4.3 | 8.7 | 0.02 | 0.20 | 0.00 | 89 | 1006.4 |
| 20260830225520 | 58 | 225 | 3.5 | 7.0 | 0.02 | 0.20 | 0.20 | 89 | 1006.0 |
| 20260830224521 | 59 | 225 | 5.2 | 9.6 | 0.02 | 0.20 | 0.20 | 90 | 1005.8 |
| 20260830223519 | 59 | 225 | 6.1 | 12.2 | 0.02 | 0.20 | 0.20 | 90 | 1005.7 |
| 20260830222541 | 59 | 225 | 7.0 | 14.8 | 0.02 | 0.20 | 0.20 | 90 | 1005.7 |
| 20260830221518 | 59 | 225 | 5.2 | 11.3 | 0.10 | 0.19 | 0.19 | 90 | 1005.7 |
| 20260830220519 | 59 | 225 | 5.2 | 9.6 | 0.13 | 0.18 | 0.18 | 90 | 1005.7 |
| 20260830215520 | 60 | 225 | 4.3 | 8.7 | 0.13 | 0.18 | 0.18 | 89 | 1005.7 |
| 20260830214539 | 60 | 225 | 5.2 | 10.4 | 0.13 | 0.18 | 0.18 | 89 | 1005.6 |
| 20260830213553 | 60 | 225 | 6.1 | 10.4 | 0.13 | 0.18 | 0.18 | 89 | 1005.6 |